(216016) = 2005 UD213

Discovered at Mount Lemmon on 2005-10-27 by Mt. Lemmon Survey.

Orbit

Orbit type: Main Belt

Note: WebGL enabled browser required.

epoch2024-03-31.0
epoch JD2460400.5
perihelion date2021-05-31.64865
perihelion JD2459366.14865
argument of perihelion (°)331.24705
ascending node (°)271.24225
inclination (°)5.74726
eccentricity0.1002332
perihelion distance (AU)2.0952386
Tisserand w.r.t. Jupiter3.6
ΔV w.r.t. Earth (km/sec)9.2
semimajor axis (AU)2.3286463
mean anomaly (°)286.89080
mean daily motion (°/day)0.27736300
aphelion distance (AU)2.562
period (years)3.55
P-vector [x]-0.45949676
P-vector [y]-0.79452802
P-vector [z]-0.39697348
Q-vector [x]0.88251874
Q-vector [y]-0.45880784
Q-vector [z]-0.10322811
absolute magnitude16.72
phase slope0.15
uncertainty0
referenceMPEC 2024-E23
observations used518
oppositions16
arc length (days)8139
first opposition used2001
last opposition used2024
residual rms (arc-secs)0.75
perturbers coarse indicatorM-v
perturbers precise indicator003Ek
first observation date used2001-11-19.0
last observation date used2024-03-02.0
computer nameMPCLINUX
JD of orbit computation2456877.750434
perihelion JD uncertainty (days)9.9709E-05
argument of perihelion uncertainty (°)5.6111E-05
ascending node uncertainty (°)4.8796E-05
inclination uncertainty (°)3.9655E-06
eccentricity uncertainty 4.1053E-08
perihelion distance uncertainty (AU)8.9430E-08
Minimum Orbit Intersection Distances (in AU)
for orbit epoch: 2460400.5, reference: E2024-E23
Mercury1.63072
Venus1.37185
Earth1.08391
Mars0.5549
Jupiter2.45551
Saturn6.50239
Uranus16.1505
Neptune27.2957

Observations

536 total observations over interval: 2001 11 19.31142 – 2024 03 02.205200
These data are available for download (format description).

Date (UT) J2000 RA J2000 Dec Magn Location Ref
2001 11 19.31142 04 28 09.15 +26 01 01.8 20.0   704 – Lincoln Laboratory ETS, New Mexico MPS 168843
2001 11 19.32608 04 28 08.16 +26 00 59.2 20.1   704 – Lincoln Laboratory ETS, New Mexico MPS 168843
2001 11 19.34075 04 28 07.19 +26 00 54.9 20.4   704 – Lincoln Laboratory ETS, New Mexico MPS 168843
2001 11 19.35542 04 28 06.15 +26 00 52.1 20.4   704 – Lincoln Laboratory ETS, New Mexico MPS 168843
2001 12 19.17079 03 56 51.50 +23 35 43.8 20.4   704 – Lincoln Laboratory ETS, New Mexico MPS 168843
2001 12 19.20143 03 56 49.93 +23 35 36.2 20.0   704 – Lincoln Laboratory ETS, New Mexico MPS 168843
2001 12 19.21659 03 56 49.16 +23 35 31.8 19.8   704 – Lincoln Laboratory ETS, New Mexico MPS 168843
2003 05 03.18764 12 30 00.02 -13 19 25.9 19.8 V 691 – Steward Observatory, Kitt Peak-Spacewatch MPS 168843
2003 05 03.21506 12 29 59.18 -13 19 14.3 20.2 V 691 – Steward Observatory, Kitt Peak-Spacewatch MPS 168843
2003 05 03.24232 12 29 58.37 -13 19 02.6 19.7 V 691 – Steward Observatory, Kitt Peak-Spacewatch MPS 168843
2004 09 10.28673 00 15 20.79 +12 03 41.6 19.4   704 – Lincoln Laboratory ETS, New Mexico MPS 168843
2004 09 10.29796 00 15 20.31 +12 03 39.2 19.7   704 – Lincoln Laboratory ETS, New Mexico MPS 168843
2004 09 10.30918 00 15 19.60 +12 03 36.3 19.9   704 – Lincoln Laboratory ETS, New Mexico MPS 168843
2004 09 10.32041 00 15 18.92 +12 03 34.0 19.5   704 – Lincoln Laboratory ETS, New Mexico MPS 168843
2004 09 10.33164 00 15 18.52 +12 03 31.8 20.4   704 – Lincoln Laboratory ETS, New Mexico MPS 168843
2004 09 18.29921 00 08 04.80 +11 26 30.3 19.0   704 – Lincoln Laboratory ETS, New Mexico MPS 168843
2004 09 18.32299 00 08 03.39 +11 26 21.7 19.4   704 – Lincoln Laboratory ETS, New Mexico MPS 168843
2004 09 18.33489 00 08 02.74 +11 26 19.1 19.8   704 – Lincoln Laboratory ETS, New Mexico MPS 168843
2004 09 18.34678 00 08 02.02 +11 26 15.0 19.6   704 – Lincoln Laboratory ETS, New Mexico MPS 168843
2005 10 27.48588 08 08 48.98 +19 31 53.4 21.8 V G96 – Mt. Lemmon Survey MPS 149836
2005 10 27.49252 08 08 49.34 +19 31 50.8 21.6 V G96 – Mt. Lemmon Survey MPS 149836
2005 10 27.49905 08 08 49.70 +19 31 49.3 22.2 V G96 – Mt. Lemmon Survey MPS 149836
2005 10 27.50583 08 08 49.99 +19 31 47.8 21.5 V G96 – Mt. Lemmon Survey MPS 149836
2005 10 28.47355 08 09 39.20 +19 27 28.9 20.3 V G96 – Mt. Lemmon Survey MPS 149836
2005 10 28.48037 08 09 39.56 +19 27 26.7 21.1 V G96 – Mt. Lemmon Survey MPS 149836
2005 10 28.48718 08 09 39.92 +19 27 25.5 21.6 V G96 – Mt. Lemmon Survey MPS 149836
2005 10 28.49391 08 09 40.24 +19 27 23.2 21.5 V G96 – Mt. Lemmon Survey MPS 149836
2005 12 24.41038 08 14 56.58 +16 45 12.2   691 – Steward Observatory, Kitt Peak-Spacewatch MPS 156617
2005 12 24.42770 08 14 55.78 +16 45 11.6   691 – Steward Observatory, Kitt Peak-Spacewatch MPS 156617
2005 12 24.44503 08 14 54.98 +16 45 11.2   691 – Steward Observatory, Kitt Peak-Spacewatch MPS 156617
2005 12 28.41944 08 11 42.98 +16 43 23.3 20.1 V 691 – Steward Observatory, Kitt Peak-Spacewatch MPS 156617
2005 12 28.43673 08 11 42.07 +16 43 22.8 20.3 V 691 – Steward Observatory, Kitt Peak-Spacewatch MPS 156617
2005 12 28.45404 08 11 41.15 +16 43 22.4 20.2 V 691 – Steward Observatory, Kitt Peak-Spacewatch MPS 156617
2006 01 02.32624 08 07 13.87 +16 42 46.9 20.0 V G96 – Mt. Lemmon Survey MPS 157811
2006 01 02.33326 08 07 13.44 +16 42 47.1 19.7 V G96 – Mt. Lemmon Survey MPS 157811
2006 01 02.34050 08 07 13.04 +16 42 47.1 20.0 V G96 – Mt. Lemmon Survey MPS 157811
2006 01 02.34755 08 07 12.57 +16 42 47.0 20.1 V G96 – Mt. Lemmon Survey MPS 157811
2006 01 07.30638 08 02 10.96 +16 43 45.1 20.0 V 691 – Steward Observatory, Kitt Peak-Spacewatch MPS 159029
2006 01 07.32374 08 02 09.83 +16 43 45.3 20.0 V 691 – Steward Observatory, Kitt Peak-Spacewatch MPS 159029
2006 01 07.34304 08 02 08.56 +16 43 46.0 19.8 V 691 – Steward Observatory, Kitt Peak-Spacewatch MPS 159029
2006 01 09.31433 08 00 02.34 +16 44 30.1 19.5 V G96 – Mt. Lemmon Survey MPS 159029
2006 01 09.32162 08 00 01.83 +16 44 30.5 19.7 V G96 – Mt. Lemmon Survey MPS 159029
2006 01 09.32892 08 00 01.33 +16 44 30.4 19.8 V G96 – Mt. Lemmon Survey MPS 159029
2006 01 09.33622 08 00 00.82 +16 44 30.7 19.3 V G96 – Mt. Lemmon Survey MPS 159029
2006 01 31.24640 07 35 58.41 +17 00 06.3 20.1 V G96 – Mt. Lemmon Survey MPS 161832
2006 01 31.25434 07 35 57.98 +17 00 06.0 19.2 V G96 – Mt. Lemmon Survey MPS 161832
2006 01 31.26231 07 35 57.44 +17 00 07.0 19.9 V G96 – Mt. Lemmon Survey MPS 161832
2006 01 31.27028 07 35 56.94 +17 00 07.5 19.3 V G96 – Mt. Lemmon Survey MPS 161832
2008 10 21.32139 03 50 41.01 +26 14 50.2 20.3 V 691 – Steward Observatory, Kitt Peak-Spacewatch MPS 260606
2008 10 21.33906 03 50 40.17 +26 14 48.9 20.7 V 691 – Steward Observatory, Kitt Peak-Spacewatch MPS 260606
2008 10 21.35673 03 50 39.39 +26 14 46.0 20.6 V 691 – Steward Observatory, Kitt Peak-Spacewatch MPS 260606
2008 10 25.26085 03 47 40.94 +26 05 12.2 20.3 V 691 – Steward Observatory, Kitt Peak-Spacewatch MPS 261560
2008 10 25.27855 03 47 40.03 +26 05 09.4 20.3 V 691 – Steward Observatory, Kitt Peak-Spacewatch MPS 261560
2008 10 25.29624 03 47 39.15 +26 05 06.5 20.4 V 691 – Steward Observatory, Kitt Peak-Spacewatch MPS 261560
2008 10 29.25880 03 44 14.52 +25 53 01.8 20.1 V 691 – Steward Observatory, Kitt Peak-Spacewatch MPS 261560
2008 10 29.27651 03 44 13.54 +25 52 58.5 20.2 V 691 – Steward Observatory, Kitt Peak-Spacewatch MPS 261560
2008 10 29.29184 03 44 12.67 +25 52 55.3 20.4 V 691 – Steward Observatory, Kitt Peak-Spacewatch MPS 261560
2008 11 06.26270 03 36 24.91 +25 21 30.7 20.0 V 691 – Steward Observatory, Kitt Peak-Spacewatch MPS 263233
2008 11 06.28033 03 36 23.74 +25 21 26.1 20.1 V 691 – Steward Observatory, Kitt Peak-Spacewatch MPS 263233
2008 11 06.29796 03 36 22.64 +25 21 21.5 20.0 V 691 – Steward Observatory, Kitt Peak-Spacewatch MPS 263233
2008 11 20.32454 03 21 18.08 +24 06 36.8 19.4 C 704 – Lincoln Laboratory ETS, New Mexico MPS 287979
2008 11 20.33723 03 21 17.22 +24 06 29.7 19.4 C 704 – Lincoln Laboratory ETS, New Mexico MPS 287979
2008 11 20.34972 03 21 16.41 +24 06 25.6 19.4 C 704 – Lincoln Laboratory ETS, New Mexico MPS 287979
2008 11 20.37486 03 21 14.83 +24 06 18.0 19.6 C 704 – Lincoln Laboratory ETS, New Mexico MPS 287979
2010 02 16.502675 12 04 09.746 -10 24 48.10 20.69 g F51 – Pan-STARRS 1, Haleakala MPS 317762
2010 02 16.510994 12 04 09.496 -10 24 48.54 20.85 g F51 – Pan-STARRS 1, Haleakala MPS 317762
2010 02 23.505075 12 00 24.891 -10 27 56.36 20.08 r F51 – Pan-STARRS 1, Haleakala MPS 317762
2010 02 23.513385 12 00 24.560 -10 27 56.11 20.06 r F51 – Pan-STARRS 1, Haleakala MPS 317762
2010 02 24.541412 11 59 44.807 -10 27 23.66 19.92 i F51 – Pan-STARRS 1, Haleakala MPS 317762
2010 02 24.550919 11 59 44.414 -10 27 23.23 19.92 i F51 – Pan-STARRS 1, Haleakala MPS 317762
2010 03 13.31771 11 45 54.25 -09 42 39.6 18.7 V 703 – Catalina Sky Survey MPS 319173
2010 03 13.32352 11 45 53.78 -09 42 37.0 19.1 V 703 – Catalina Sky Survey MPS 319173
2010 03 13.32928 11 45 53.49 -09 42 35.7 19.0 V 703 – Catalina Sky Survey MPS 319173
2010 03 13.33508 11 45 53.10 -09 42 34.5 19.1 V 703 – Catalina Sky Survey MPS 319173
2010 03 13.457142 11 45 46.247 -09 42 00.02 19.58 r F51 – Pan-STARRS 1, Haleakala MPS 338837
2010 03 13.466041 11 45 45.721 -09 41 57.46 19.59 r F51 – Pan-STARRS 1, Haleakala MPS 338837
2010 03 19.399986 11 40 04.568 -09 11 29.99 19.86 g F51 – Pan-STARRS 1, Haleakala MPS 338837
2010 03 19.409196 11 40 04.001 -09 11 26.83 19.86 g F51 – Pan-STARRS 1, Haleakala MPS 338837
2010 03 20.56510 11 38 57.33 -09 04 43.6 19.0 V E12 – Siding Spring Survey MPS 320546
2010 03 20.57715 11 38 56.61 -09 04 39.9 19.1 V E12 – Siding Spring Survey MPS 320546
2010 03 20.58931 11 38 55.89 -09 04 35.0 18.8 V E12 – Siding Spring Survey MPS 320546
2010 03 20.60137 11 38 55.14 -09 04 30.6 19.0 V E12 – Siding Spring Survey MPS 320546
2010 04 05.30094 11 25 11.06 -07 22 34.8 19.0 V 703 – Catalina Sky Survey MPS 322087
2010 04 05.30726 11 25 10.81 -07 22 30.5 19.4 V 703 – Catalina Sky Survey MPS 322087
2010 04 05.31365 11 25 10.52 -07 22 27.6 18.4 V 703 – Catalina Sky Survey MPS 322087
2010 04 05.32003 11 25 10.23 -07 22 24.4 18.9 V 703 – Catalina Sky Survey MPS 322087
